User: anonymous   Login
Location: Unspecified
(0.0000°N, 0.0000°E)
Time: 11:07:38
(UTC+00:00)
Language:

Tiros 1 despin weight - Orbit

View from above orbital plane
View from above orbital plane
View from above satellite
View from above satellite

Ground track
Ground track

The orbit data is extracted from the following two-line orbital elements,

1 00115U 60002D   16212.13347676 -.00000021  00000-0  24980-4 0  9995
2 00115  48.1657 251.0761 0034184 121.5978 238.8278 14.82838829  2424
Epoch (UTC): 30 July 2016 03:12:12
Eccentricity: 0.0034184
inclination: 48.1657°
perigee height: 596 km
apogee height: 644 km
right ascension of ascending node: 251.0761°
argument of perigee: 121.5978°
revolutions per day: 14.82838829
mean anomaly at epoch: 238.8278°
orbit number at epoch: 242

The dashed part of the orbit path shows where the satellite is in the earth's shadow,  

DLR